iso_date,Year,Hour,Min,DOY,POS_DOY,Lat,Lon,BP,Ts,Ta,has_bp,has_ts,has_ta,BuoyID,Buoy_Type,Buoy_Owner,Logistics,Hemisphere
2020-09-05T18:00:00Z,2020,18,0,249.75,249.75,55.508,-56.225,997.8,5.63,-999.0,yes,yes,no,300234067877180,Gy,AOML,AMUNDSEN,North
2020-09-05T19:00:02Z,2020,19,0,249.7917,249.7917,55.504,-56.175,997.8,5.66,-999.0,yes,yes,no,300234067877180,Gy,AOML,AMUNDSEN,North
2020-09-05T19:59:57Z,2020,20,0,249.8333,249.8333,55.499,-56.123,997.8,5.63,-999.0,yes,yes,no,300234067877180,Gy,AOML,AMUNDSEN,North
2020-09-05T21:00:00Z,2020,21,0,249.875,249.875,55.492,-56.066,997.8,5.64,-999.0,yes,yes,no,300234067877180,Gy,AOML,AMUNDSEN,North
2020-09-05T22:00:02Z,2020,22,0,249.9167,249.9167,55.483,-56.01,998.1,5.62,-999.0,yes,yes,no,300234067877180,Gy,AOML,AMUNDSEN,North
2020-09-05T22:59:57Z,2020,23,0,249.9583,249.9583,55.474,-55.959,998.6,5.59,-999.0,yes,yes,no,300234067877180,Gy,AOML,AMUNDSEN,North
2020-09-06T00:00:00Z,2020,0,0,250.0,250.0,55.464,-55.912,998.8,5.52,-999.0,yes,yes,no,300234067877180,Gy,AOML,AMUNDSEN,North
2020-09-06T01:00:02Z,2020,1,0,250.0417,250.0417,55.453,-55.867,999.0,5.43,-999.0,yes,yes,no,300234067877180,Gy,AOML,AMUNDSEN,North
2020-09-06T01:59:57Z,2020,2,0,250.0833,250.0833,55.442,-55.821,999.4,5.39,-999.0,yes,yes,no,300234067877180,Gy,AOML,AMUNDSEN,North
2020-09-06T03:00:00Z,2020,3,0,250.125,250.125,55.433,-55.78,999.8,5.37,-999.0,yes,yes,no,300234067877180,Gy,AOML,AMUNDSEN,North
2020-09-06T04:00:02Z,2020,4,0,250.1667,250.1667,55.425,-55.733,1000.3,5.4,-999.0,yes,yes,no,300234067877180,Gy,AOML,AMUNDSEN,North
2020-09-06T04:59:57Z,2020,5,0,250.2083,250.2083,55.416,-55.685,1000.8,5.44,-999.0,yes,yes,no,300234067877180,Gy,AOML,AMUNDSEN,North
2020-09-06T06:00:00Z,2020,6,0,250.25,250.25,55.403,-55.638,1001.5,5.46,-999.0,yes,yes,no,300234067877180,Gy,AOML,AMUNDSEN,North
2020-09-06T07:00:02Z,2020,7,0,250.2917,250.2917,55.388,-55.593,1002.2,5.5,-999.0,yes,yes,no,300234067877180,Gy,AOML,AMUNDSEN,North
2020-09-06T07:59:57Z,2020,8,0,250.3333,250.3333,55.372,-55.551,1002.7,5.5,-999.0,yes,yes,no,300234067877180,Gy,AOML,AMUNDSEN,North
2020-09-06T09:00:00Z,2020,9,0,250.375,250.375,55.358,-55.513,1003.3,5.43,-999.0,yes,yes,no,300234067877180,Gy,AOML,AMUNDSEN,North
2020-09-06T10:00:02Z,2020,10,0,250.4167,250.4167,55.343,-55.474,1004.1,5.34,-999.0,yes,yes,no,300234067877180,Gy,AOML,AMUNDSEN,North
2020-09-06T10:59:57Z,2020,11,0,250.4583,250.4583,55.328,-55.433,1004.9,5.3,-999.0,yes,yes,no,300234067877180,Gy,AOML,AMUNDSEN,North
2020-09-06T12:00:00Z,2020,12,0,250.5,250.5,55.312,-55.393,1005.4,5.24,-999.0,yes,yes,no,300234067877180,Gy,AOML,AMUNDSEN,North
2020-09-06T13:00:02Z,2020,13,0,250.5417,250.5417,55.298,-55.349,1006.3,5.21,-999.0,yes,yes,no,300234067877180,Gy,AOML,AMUNDSEN,North
2020-09-06T13:59:57Z,2020,14,0,250.5833,250.5833,55.285,-55.305,1006.9,5.22,-999.0,yes,yes,no,300234067877180,Gy,AOML,AMUNDSEN,North
2020-09-06T15:00:00Z,2020,15,0,250.625,250.625,55.27,-55.256,1007.5,5.27,-999.0,yes,yes,no,300234067877180,Gy,AOML,AMUNDSEN,North
2020-09-06T16:00:02Z,2020,16,0,250.6667,250.6667,55.253,-55.205,1008.0,5.39,-999.0,yes,yes,no,300234067877180,Gy,AOML,AMUNDSEN,North
2020-09-06T16:59:57Z,2020,17,0,250.7083,250.7083,55.235,-55.157,1009.0,5.46,-999.0,yes,yes,no,300234067877180,Gy,AOML,AMUNDSEN,North
2020-09-06T18:00:00Z,2020,18,0,250.75,250.75,55.216,-55.113,1009.6,5.54,-999.0,yes,yes,no,300234067877180,Gy,AOML,AMUNDSEN,North
2020-09-06T19:00:02Z,2020,19,0,250.7917,250.7917,55.198,-55.072,1010.6,5.49,-999.0,yes,yes,no,300234067877180,Gy,AOML,AMUNDSEN,North
2020-09-06T19:59:57Z,2020,20,0,250.8333,250.8333,55.183,-55.035,1011.1,5.45,-999.0,yes,yes,no,300234067877180,Gy,AOML,AMUNDSEN,North
2020-09-06T21:00:00Z,2020,21,0,250.875,250.875,55.168,-54.994,1012.0,5.42,-999.0,yes,yes,no,300234067877180,Gy,AOML,AMUNDSEN,North
2020-09-06T22:00:02Z,2020,22,0,250.9167,250.9167,55.155,-54.958,1012.5,5.37,-999.0,yes,yes,no,300234067877180,Gy,AOML,AMUNDSEN,North
2020-09-06T22:59:57Z,2020,23,0,250.9583,250.9583,55.143,-54.92,1013.2,5.28,-999.0,yes,yes,no,300234067877180,Gy,AOML,AMUNDSEN,North
2020-09-07T00:00:00Z,2020,0,0,251.0,251.0,55.132,-54.885,1013.4,5.22,-999.0,yes,yes,no,300234067877180,Gy,AOML,AMUNDSEN,North
2020-09-07T01:00:02Z,2020,1,0,251.0417,251.0417,55.123,-54.842,1013.9,5.14,-999.0,yes,yes,no,300234067877180,Gy,AOML,AMUNDSEN,North
2020-09-07T01:59:57Z,2020,2,0,251.0833,251.0833,55.112,-54.798,1014.3,5.09,-999.0,yes,yes,no,300234067877180,Gy,AOML,AMUNDSEN,North
2020-09-07T03:00:00Z,2020,3,0,251.125,251.125,55.101,-54.754,1014.9,5.07,-999.0,yes,yes,no,300234067877180,Gy,AOML,AMUNDSEN,North
2020-09-07T04:00:02Z,2020,4,0,251.1667,251.1667,55.087,-54.708,1015.1,5.06,-999.0,yes,yes,no,300234067877180,Gy,AOML,AMUNDSEN,North
2020-09-07T04:59:57Z,2020,5,0,251.2083,251.2083,55.074,-54.662,1015.6,5.1,-999.0,yes,yes,no,300234067877180,Gy,AOML,AMUNDSEN,North
2020-09-07T06:00:00Z,2020,6,0,251.25,251.25,55.059,-54.616,1016.7,5.06,-999.0,yes,yes,no,300234067877180,Gy,AOML,AMUNDSEN,North
2020-09-07T07:00:02Z,2020,7,0,251.2917,251.2917,55.042,-54.571,1017.3,5.0,-999.0,yes,yes,no,300234067877180,Gy,AOML,AMUNDSEN,North
2020-09-07T07:59:57Z,2020,8,0,251.3333,251.3333,55.024,-54.534,1017.8,4.92,-999.0,yes,yes,no,300234067877180,Gy,AOML,AMUNDSEN,North
2020-09-07T09:00:00Z,2020,9,0,251.375,251.375,55.008,-54.506,1018.8,4.86,-999.0,yes,yes,no,300234067877180,Gy,AOML,AMUNDSEN,North
2020-09-07T10:00:02Z,2020,10,0,251.4167,251.4167,54.995,-54.48,1019.7,4.86,-999.0,yes,yes,no,300234067877180,Gy,AOML,AMUNDSEN,North
2020-09-07T10:59:57Z,2020,11,0,251.4583,251.4583,54.982,-54.452,1020.3,4.84,-999.0,yes,yes,no,300234067877180,Gy,AOML,AMUNDSEN,North
2020-09-07T12:00:00Z,2020,12,0,251.5,251.5,54.97,-54.424,1020.9,4.82,-999.0,yes,yes,no,300234067877180,Gy,AOML,AMUNDSEN,North
2020-09-07T13:00:02Z,2020,13,0,251.5417,251.5417,54.957,-54.396,1021.6,4.84,-999.0,yes,yes,no,300234067877180,Gy,AOML,AMUNDSEN,North
2020-09-07T13:59:57Z,2020,14,0,251.5833,251.5833,54.946,-54.367,1022.2,4.96,-999.0,yes,yes,no,300234067877180,Gy,AOML,AMUNDSEN,North
2020-09-07T15:00:00Z,2020,15,0,251.625,251.625,54.935,-54.335,1022.6,5.04,-999.0,yes,yes,no,300234067877180,Gy,AOML,AMUNDSEN,North
2020-09-07T16:00:02Z,2020,16,0,251.6667,251.6667,54.924,-54.304,1023.4,5.15,-999.0,yes,yes,no,300234067877180,Gy,AOML,AMUNDSEN,North
2020-09-07T16:59:57Z,2020,17,0,251.7083,251.7083,54.912,-54.27,1022.9,5.17,-999.0,yes,yes,no,300234067877180,Gy,AOML,AMUNDSEN,North
2020-09-07T18:00:00Z,2020,18,0,251.75,251.75,54.898,-54.238,1023.5,5.18,-999.0,yes,yes,no,300234067877180,Gy,AOML,AMUNDSEN,North
2020-09-07T19:00:02Z,2020,19,0,251.7917,251.7917,54.884,-54.207,1023.7,5.13,-999.0,yes,yes,no,300234067877180,Gy,AOML,AMUNDSEN,North
2020-09-07T19:59:57Z,2020,20,0,251.8333,251.8333,54.87,-54.18,1023.9,5.26,-999.0,yes,yes,no,300234067877180,Gy,AOML,AMUNDSEN,North
2020-09-07T21:00:00Z,2020,21,0,251.875,251.875,54.859,-54.159,1023.7,5.3,-999.0,yes,yes,no,300234067877180,Gy,AOML,AMUNDSEN,North
2020-09-07T22:00:02Z,2020,22,0,251.9167,251.9167,54.845,-54.139,1023.7,5.46,-999.0,yes,yes,no,300234067877180,Gy,AOML,AMUNDSEN,North
2020-09-07T22:59:57Z,2020,23,0,251.9583,251.9583,54.832,-54.122,1023.2,5.51,-999.0,yes,yes,no,300234067877180,Gy,AOML,AMUNDSEN,North
2020-09-08T00:00:00Z,2020,0,0,252.0,252.0,54.82,-54.104,1023.0,5.42,-999.0,yes,yes,no,300234067877180,Gy,AOML,AMUNDSEN,North
2020-09-08T01:00:02Z,2020,1,0,252.0417,252.0417,54.808,-54.09,1022.8,5.38,-999.0,yes,yes,no,300234067877180,Gy,AOML,AMUNDSEN,North
2020-09-08T01:59:57Z,2020,2,0,252.0833,252.0833,54.798,-54.071,1021.9,5.17,-999.0,yes,yes,no,300234067877180,Gy,AOML,AMUNDSEN,North
2020-09-08T03:00:00Z,2020,3,0,252.125,252.125,54.788,-54.051,1021.3,5.1,-999.0,yes,yes,no,300234067877180,Gy,AOML,AMUNDSEN,North
2020-09-08T04:00:02Z,2020,4,0,252.1667,252.1667,54.777,-54.029,1020.6,5.01,-999.0,yes,yes,no,300234067877180,Gy,AOML,AMUNDSEN,North
2020-09-08T04:59:57Z,2020,5,0,252.2083,252.2083,54.766,-54.008,1020.2,5.34,-999.0,yes,yes,no,300234067877180,Gy,AOML,AMUNDSEN,North
2020-09-08T06:00:00Z,2020,6,0,252.25,252.25,54.755,-53.983,1019.4,5.18,-999.0,yes,yes,no,300234067877180,Gy,AOML,AMUNDSEN,North
2020-09-08T07:00:02Z,2020,7,0,252.2917,252.2917,54.742,-53.963,1018.4,5.08,-999.0,yes,yes,no,300234067877180,Gy,AOML,AMUNDSEN,North
2020-09-08T07:59:57Z,2020,8,0,252.3333,252.3333,54.727,-53.944,1017.6,5.09,-999.0,yes,yes,no,300234067877180,Gy,AOML,AMUNDSEN,North
2020-09-08T09:00:00Z,2020,9,0,252.375,252.375,54.714,-53.925,1015.9,5.02,-999.0,yes,yes,no,300234067877180,Gy,AOML,AMUNDSEN,North
2020-09-08T10:00:02Z,2020,10,0,252.4167,252.4167,54.702,-53.907,1015.1,5.0,-999.0,yes,yes,no,300234067877180,Gy,AOML,AMUNDSEN,North
2020-09-08T10:59:57Z,2020,11,0,252.4583,252.4583,54.69,-53.889,1013.8,5.01,-999.0,yes,yes,no,300234067877180,Gy,AOML,AMUNDSEN,North
2020-09-08T12:00:00Z,2020,12,0,252.5,252.5,54.682,-53.873,1012.1,5.04,-999.0,yes,yes,no,300234067877180,Gy,AOML,AMUNDSEN,North
2020-09-08T13:00:02Z,2020,13,0,252.5417,252.5417,54.675,-53.854,1011.8,5.05,-999.0,yes,yes,no,300234067877180,Gy,AOML,AMUNDSEN,North
2020-09-08T13:59:57Z,2020,14,0,252.5833,252.5833,54.665,-53.827,1011.0,5.06,-999.0,yes,yes,no,300234067877180,Gy,AOML,AMUNDSEN,North
2020-09-08T15:00:00Z,2020,15,0,252.625,252.625,54.654,-53.798,1010.6,5.03,-999.0,yes,yes,no,300234067877180,Gy,AOML,AMUNDSEN,North
2020-09-08T16:00:02Z,2020,16,0,252.6667,252.6667,54.649,-53.764,1010.5,4.97,-999.0,yes,yes,no,300234067877180,Gy,AOML,AMUNDSEN,North
2020-09-08T16:59:57Z,2020,17,0,252.7083,252.7083,54.633,-53.736,1010.1,4.94,-999.0,yes,yes,no,300234067877180,Gy,AOML,AMUNDSEN,North
2020-09-08T18:00:00Z,2020,18,0,252.75,252.75,54.619,-53.703,1009.0,4.95,-999.0,yes,yes,no,300234067877180,Gy,AOML,AMUNDSEN,North
2020-09-08T19:00:02Z,2020,19,0,252.7917,252.7917,54.604,-53.673,1008.0,4.95,-999.0,yes,yes,no,300234067877180,Gy,AOML,AMUNDSEN,North
2020-09-08T19:59:57Z,2020,20,0,252.8333,252.8333,54.589,-53.646,1007.5,4.99,-999.0,yes,yes,no,300234067877180,Gy,AOML,AMUNDSEN,North
2020-09-08T21:00:00Z,2020,21,0,252.875,252.875,54.571,-53.622,1006.6,5.01,-999.0,yes,yes,no,300234067877180,Gy,AOML,AMUNDSEN,North
2020-09-08T22:00:02Z,2020,22,0,252.9167,252.9167,54.557,-53.604,1006.0,5.04,-999.0,yes,yes,no,300234067877180,Gy,AOML,AMUNDSEN,North
2020-09-08T22:59:57Z,2020,23,0,252.9583,252.9583,54.541,-53.59,1005.3,5.06,-999.0,yes,yes,no,300234067877180,Gy,AOML,AMUNDSEN,North
2020-09-09T00:00:00Z,2020,0,0,253.0,253.0,54.527,-53.579,1005.0,5.06,-999.0,yes,yes,no,300234067877180,Gy,AOML,AMUNDSEN,North
2020-09-09T01:00:02Z,2020,1,0,253.0417,253.0417,54.518,-53.567,1004.9,5.11,-999.0,yes,yes,no,300234067877180,Gy,AOML,AMUNDSEN,North
2020-09-09T01:59:57Z,2020,2,0,253.0833,253.0833,54.506,-53.555,1004.7,5.12,-999.0,yes,yes,no,300234067877180,Gy,AOML,AMUNDSEN,North
2020-09-09T03:00:00Z,2020,3,0,253.125,253.125,54.496,-53.539,1005.4,5.13,-999.0,yes,yes,no,300234067877180,Gy,AOML,AMUNDSEN,North
2020-09-09T04:00:02Z,2020,4,0,253.1667,253.1667,54.485,-53.519,1005.8,5.14,-999.0,yes,yes,no,300234067877180,Gy,AOML,AMUNDSEN,North
2020-09-09T04:59:57Z,2020,5,0,253.2083,253.2083,54.474,-53.502,1006.5,5.11,-999.0,yes,yes,no,300234067877180,Gy,AOML,AMUNDSEN,North
2020-09-09T06:00:00Z,2020,6,0,253.25,253.25,54.461,-53.482,1007.1,5.13,-999.0,yes,yes,no,300234067877180,Gy,AOML,AMUNDSEN,North
2020-09-09T07:00:02Z,2020,7,0,253.2917,253.2917,54.448,-53.467,1007.7,5.13,-999.0,yes,yes,no,300234067877180,Gy,AOML,AMUNDSEN,North
2020-09-09T07:59:57Z,2020,8,0,253.3333,253.3333,54.435,-53.452,1008.4,5.13,-999.0,yes,yes,no,300234067877180,Gy,AOML,AMUNDSEN,North
2020-09-09T09:00:00Z,2020,9,0,253.375,253.375,54.423,-53.438,1009.2,5.12,-999.0,yes,yes,no,300234067877180,Gy,AOML,AMUNDSEN,North
2020-09-09T10:00:02Z,2020,10,0,253.4167,253.4167,54.406,-53.421,1010.2,5.13,-999.0,yes,yes,no,300234067877180,Gy,AOML,AMUNDSEN,North
2020-09-09T10:59:57Z,2020,11,0,253.4583,253.4583,54.396,-53.416,1010.8,5.15,-999.0,yes,yes,no,300234067877180,Gy,AOML,AMUNDSEN,North
2020-09-09T12:00:00Z,2020,12,0,253.5,253.5,54.386,-53.408,1011.9,5.16,-999.0,yes,yes,no,300234067877180,Gy,AOML,AMUNDSEN,North
2020-09-09T13:00:02Z,2020,13,0,253.5417,253.5417,54.377,-53.399,1013.1,5.18,-999.0,yes,yes,no,300234067877180,Gy,AOML,AMUNDSEN,North
2020-09-09T13:59:57Z,2020,14,0,253.5833,253.5833,54.369,-53.386,1014.3,5.2,-999.0,yes,yes,no,300234067877180,Gy,AOML,AMUNDSEN,North
2020-09-09T15:00:00Z,2020,15,0,253.625,253.625,54.359,-53.372,1015.2,5.22,-999.0,yes,yes,no,300234067877180,Gy,AOML,AMUNDSEN,North
2020-09-09T16:00:02Z,2020,16,0,253.6667,253.6667,54.348,-53.358,1016.9,5.23,-999.0,yes,yes,no,300234067877180,Gy,AOML,AMUNDSEN,North
2020-09-09T16:59:57Z,2020,17,0,253.7083,253.7083,54.336,-53.341,1017.9,5.26,-999.0,yes,yes,no,300234067877180,Gy,AOML,AMUNDSEN,North
2020-09-09T18:00:00Z,2020,18,0,253.75,253.75,54.322,-53.323,1018.7,5.27,-999.0,yes,yes,no,300234067877180,Gy,AOML,AMUNDSEN,North
2020-09-09T19:00:02Z,2020,19,0,253.7917,253.7917,54.308,-53.304,1019.8,5.27,-999.0,yes,yes,no,300234067877180,Gy,AOML,AMUNDSEN,North
2020-09-09T19:59:57Z,2020,20,0,253.8333,253.8333,54.292,-53.287,1020.3,5.26,-999.0,yes,yes,no,300234067877180,Gy,AOML,AMUNDSEN,North
2020-09-09T21:00:00Z,2020,21,0,253.875,253.875,54.28,-53.274,1020.8,5.24,-999.0,yes,yes,no,300234067877180,Gy,AOML,AMUNDSEN,North
2020-09-09T22:00:02Z,2020,22,0,253.9167,253.9167,54.265,-53.265,1021.3,5.23,-999.0,yes,yes,no,300234067877180,Gy,AOML,AMUNDSEN,North
2020-09-09T22:59:57Z,2020,23,0,253.9583,253.9583,54.251,-53.259,1022.1,5.22,-999.0,yes,yes,no,300234067877180,Gy,AOML,AMUNDSEN,North
2020-09-10T00:00:00Z,2020,0,0,254.0,254.0,54.239,-53.253,1022.7,5.22,-999.0,yes,yes,no,300234067877180,Gy,AOML,AMUNDSEN,North
2020-09-10T01:00:02Z,2020,1,0,254.0417,254.0417,54.229,-53.246,1023.2,5.21,-999.0,yes,yes,no,300234067877180,Gy,AOML,AMUNDSEN,North
2020-09-10T01:59:57Z,2020,2,0,254.0833,254.0833,54.22,-53.24,1023.4,5.21,-999.0,yes,yes,no,300234067877180,Gy,AOML,AMUNDSEN,North
2020-09-10T03:00:00Z,2020,3,0,254.125,254.125,54.213,-53.236,1023.5,5.21,-999.0,yes,yes,no,300234067877180,Gy,AOML,AMUNDSEN,North
2020-09-10T04:00:02Z,2020,4,0,254.1667,254.1667,54.207,-53.226,1023.6,5.22,-999.0,yes,yes,no,300234067877180,Gy,AOML,AMUNDSEN,North
2020-09-10T04:59:57Z,2020,5,0,254.2083,254.2083,54.202,-53.209,1024.0,5.23,-999.0,yes,yes,no,300234067877180,Gy,AOML,AMUNDSEN,North
2020-09-10T06:00:00Z,2020,6,0,254.25,254.25,54.194,-53.19,1024.3,5.22,-999.0,yes,yes,no,300234067877180,Gy,AOML,AMUNDSEN,North
2020-09-10T07:00:02Z,2020,7,0,254.2917,254.2917,54.184,-53.173,1024.2,5.19,-999.0,yes,yes,no,300234067877180,Gy,AOML,AMUNDSEN,North
2020-09-10T07:59:57Z,2020,8,0,254.3333,254.3333,54.172,-53.155,1024.2,5.19,-999.0,yes,yes,no,300234067877180,Gy,AOML,AMUNDSEN,North
2020-09-10T09:00:00Z,2020,9,0,254.375,254.375,54.16,-53.137,1024.5,5.18,-999.0,yes,yes,no,300234067877180,Gy,AOML,AMUNDSEN,North
2020-09-10T10:00:02Z,2020,10,0,254.4167,254.4167,54.146,-53.122,1024.8,5.18,-999.0,yes,yes,no,300234067877180,Gy,AOML,AMUNDSEN,North
2020-09-10T10:59:57Z,2020,11,0,254.4583,254.4583,54.133,-53.108,1024.9,5.19,-999.0,yes,yes,no,300234067877180,Gy,AOML,AMUNDSEN,North
2020-09-10T12:00:00Z,2020,12,0,254.5,254.5,54.117,-53.095,1025.4,5.22,-999.0,yes,yes,no,300234067877180,Gy,AOML,AMUNDSEN,North
2020-09-10T13:00:02Z,2020,13,0,254.5417,254.5417,54.102,-53.087,1024.9,5.29,-999.0,yes,yes,no,300234067877180,Gy,AOML,AMUNDSEN,North
2020-09-10T13:59:57Z,2020,14,0,254.5833,254.5833,54.089,-53.081,1024.5,5.43,-999.0,yes,yes,no,300234067877180,Gy,AOML,AMUNDSEN,North
2020-09-10T15:00:00Z,2020,15,0,254.625,254.625,54.078,-53.075,1024.1,5.43,-999.0,yes,yes,no,300234067877180,Gy,AOML,AMUNDSEN,North
2020-09-10T16:00:02Z,2020,16,0,254.6667,254.6667,54.066,-53.07,1023.9,5.46,-999.0,yes,yes,no,300234067877180,Gy,AOML,AMUNDSEN,North
2020-09-10T16:59:57Z,2020,17,0,254.7083,254.7083,54.055,-53.063,1023.2,5.46,-999.0,yes,yes,no,300234067877180,Gy,AOML,AMUNDSEN,North
2020-09-10T18:00:00Z,2020,18,0,254.75,254.75,54.044,-53.055,1023.1,5.49,-999.0,yes,yes,no,300234067877180,Gy,AOML,AMUNDSEN,North
2020-09-10T19:00:02Z,2020,19,0,254.7917,254.7917,54.036,-53.043,1023.0,5.51,-999.0,yes,yes,no,300234067877180,Gy,AOML,AMUNDSEN,North
2020-09-10T19:59:57Z,2020,20,0,254.8333,254.8333,54.027,-53.032,1022.7,5.5,-999.0,yes,yes,no,300234067877180,Gy,AOML,AMUNDSEN,North
2020-09-10T21:00:00Z,2020,21,0,254.875,254.875,54.017,-53.019,1022.6,5.46,-999.0,yes,yes,no,300234067877180,Gy,AOML,AMUNDSEN,North
2020-09-10T22:00:02Z,2020,22,0,254.9167,254.9167,54.006,-53.005,1022.0,5.44,-999.0,yes,yes,no,300234067877180,Gy,AOML,AMUNDSEN,North
2020-09-10T22:59:57Z,2020,23,0,254.9583,254.9583,53.991,-52.99,1021.7,5.4,-999.0,yes,yes,no,300234067877180,Gy,AOML,AMUNDSEN,North
2020-09-11T00:00:00Z,2020,0,0,255.0,255.0,53.975,-52.974,1021.4,5.38,-999.0,yes,yes,no,300234067877180,Gy,AOML,AMUNDSEN,North
2020-09-11T01:00:02Z,2020,1,0,255.0417,255.0417,53.958,-52.963,1020.8,5.35,-999.0,yes,yes,no,300234067877180,Gy,AOML,AMUNDSEN,North
2020-09-11T01:59:57Z,2020,2,0,255.0833,255.0833,53.941,-52.955,1019.8,5.33,-999.0,yes,yes,no,300234067877180,Gy,AOML,AMUNDSEN,North
2020-09-11T03:00:00Z,2020,3,0,255.125,255.125,53.923,-52.951,1019.3,5.32,-999.0,yes,yes,no,300234067877180,Gy,AOML,AMUNDSEN,North
2020-09-11T04:00:02Z,2020,4,0,255.1667,255.1667,53.907,-52.948,1018.8,5.33,-999.0,yes,yes,no,300234067877180,Gy,AOML,AMUNDSEN,North
2020-09-11T04:59:57Z,2020,5,0,255.2083,255.2083,53.894,-52.944,1018.3,5.32,-999.0,yes,yes,no,300234067877180,Gy,AOML,AMUNDSEN,North
2020-09-11T06:00:00Z,2020,6,0,255.25,255.25,53.88,-52.94,1017.9,5.35,-999.0,yes,yes,no,300234067877180,Gy,AOML,AMUNDSEN,North
2020-09-11T07:00:02Z,2020,7,0,255.2917,255.2917,53.868,-52.936,1017.2,5.39,-999.0,yes,yes,no,300234067877180,Gy,AOML,AMUNDSEN,North
2020-09-11T07:59:57Z,2020,8,0,255.3333,255.3333,53.855,-52.933,1016.9,5.38,-999.0,yes,yes,no,300234067877180,Gy,AOML,AMUNDSEN,North
2020-09-11T09:00:00Z,2020,9,0,255.375,255.375,53.846,-52.927,1016.6,5.37,-999.0,yes,yes,no,300234067877180,Gy,AOML,AMUNDSEN,North
2020-09-11T10:00:02Z,2020,10,0,255.4167,255.4167,53.837,-52.916,1016.9,5.34,-999.0,yes,yes,no,300234067877180,Gy,AOML,AMUNDSEN,North
2020-09-11T10:59:57Z,2020,11,0,255.4583,255.4583,53.826,-52.904,1016.6,5.35,-999.0,yes,yes,no,300234067877180,Gy,AOML,AMUNDSEN,North
2020-09-11T12:00:00Z,2020,12,0,255.5,255.5,53.815,-52.889,1016.5,5.34,-999.0,yes,yes,no,300234067877180,Gy,AOML,AMUNDSEN,North
2020-09-11T13:00:02Z,2020,13,0,255.5417,255.5417,53.803,-52.871,1016.5,5.37,-999.0,yes,yes,no,300234067877180,Gy,AOML,AMUNDSEN,North
2020-09-11T13:59:57Z,2020,14,0,255.5833,255.5833,53.788,-52.852,1016.2,5.4,-999.0,yes,yes,no,300234067877180,Gy,AOML,AMUNDSEN,North
2020-09-11T15:00:00Z,2020,15,0,255.625,255.625,53.77,-52.835,1015.8,5.44,-999.0,yes,yes,no,300234067877180,Gy,AOML,AMUNDSEN,North
2020-09-11T16:00:02Z,2020,16,0,255.6667,255.6667,53.749,-52.82,1015.1,5.47,-999.0,yes,yes,no,300234067877180,Gy,AOML,AMUNDSEN,North
2020-09-11T16:59:57Z,2020,17,0,255.7083,255.7083,53.727,-52.808,1014.5,5.51,-999.0,yes,yes,no,300234067877180,Gy,AOML,AMUNDSEN,North
2020-09-11T18:00:00Z,2020,18,0,255.75,255.75,53.703,-52.8,1014.3,5.54,-999.0,yes,yes,no,300234067877180,Gy,AOML,AMUNDSEN,North
2020-09-11T19:00:02Z,2020,19,0,255.7917,255.7917,53.681,-52.796,1014.5,5.55,-999.0,yes,yes,no,300234067877180,Gy,AOML,AMUNDSEN,North
2020-09-11T19:59:57Z,2020,20,0,255.8333,255.8333,53.657,-52.797,1014.6,5.54,-999.0,yes,yes,no,300234067877180,Gy,AOML,AMUNDSEN,North
2020-09-11T21:00:00Z,2020,21,0,255.875,255.875,53.638,-52.801,1014.9,5.55,-999.0,yes,yes,no,300234067877180,Gy,AOML,AMUNDSEN,North
2020-09-11T22:00:02Z,2020,22,0,255.9167,255.9167,53.621,-52.803,1014.9,5.57,-999.0,yes,yes,no,300234067877180,Gy,AOML,AMUNDSEN,North
2020-09-11T22:59:57Z,2020,23,0,255.9583,255.9583,53.609,-52.802,1015.1,5.55,-999.0,yes,yes,no,300234067877180,Gy,AOML,AMUNDSEN,North
2020-09-12T00:00:00Z,2020,0,0,256.0,256.0,53.599,-52.8,1015.1,5.53,-999.0,yes,yes,no,300234067877180,Gy,AOML,AMUNDSEN,North
2020-09-12T01:00:02Z,2020,1,0,256.0417,256.0417,53.59,-52.797,1015.2,5.51,-999.0,yes,yes,no,300234067877180,Gy,AOML,AMUNDSEN,North
2020-09-12T01:59:57Z,2020,2,0,256.0833,256.0833,53.579,-52.789,1015.0,5.5,-999.0,yes,yes,no,300234067877180,Gy,AOML,AMUNDSEN,North
2020-09-12T03:00:00Z,2020,3,0,256.125,256.125,53.569,-52.78,1014.7,5.48,-999.0,yes,yes,no,300234067877180,Gy,AOML,AMUNDSEN,North
2020-09-12T04:00:02Z,2020,4,0,256.1667,256.1667,53.558,-52.768,1014.5,5.46,-999.0,yes,yes,no,300234067877180,Gy,AOML,AMUNDSEN,North
2020-09-12T04:59:57Z,2020,5,0,256.2083,256.2083,53.547,-52.75,1014.3,5.4,-999.0,yes,yes,no,300234067877180,Gy,AOML,AMUNDSEN,North
2020-09-12T06:00:00Z,2020,6,0,256.25,256.25,53.532,-52.73,1014.2,5.38,-999.0,yes,yes,no,300234067877180,Gy,AOML,AMUNDSEN,North
2020-09-12T07:00:02Z,2020,7,0,256.2917,256.2917,53.512,-52.717,1014.0,5.39,-999.0,yes,yes,no,300234067877180,Gy,AOML,AMUNDSEN,North
2020-09-12T07:59:57Z,2020,8,0,256.3333,256.3333,53.494,-52.71,1013.8,5.44,-999.0,yes,yes,no,300234067877180,Gy,AOML,AMUNDSEN,North
2020-09-12T09:00:00Z,2020,9,0,256.375,256.375,53.477,-52.704,1013.9,5.41,-999.0,yes,yes,no,300234067877180,Gy,AOML,AMUNDSEN,North
2020-09-12T10:00:02Z,2020,10,0,256.4167,256.4167,53.46,-52.7,1013.6,5.45,-999.0,yes,yes,no,300234067877180,Gy,AOML,AMUNDSEN,North
2020-09-12T10:59:57Z,2020,11,0,256.4583,256.4583,53.449,-52.695,1013.4,5.47,-999.0,yes,yes,no,300234067877180,Gy,AOML,AMUNDSEN,North
2020-09-12T12:00:00Z,2020,12,0,256.5,256.5,53.44,-52.69,1013.2,5.52,-999.0,yes,yes,no,300234067877180,Gy,AOML,AMUNDSEN,North
2020-09-12T13:00:02Z,2020,13,0,256.5417,256.5417,53.432,-52.685,1013.2,5.56,-999.0,yes,yes,no,300234067877180,Gy,AOML,AMUNDSEN,North
2020-09-12T13:59:57Z,2020,14,0,256.5833,256.5833,53.426,-52.678,1012.7,5.64,-999.0,yes,yes,no,300234067877180,Gy,AOML,AMUNDSEN,North
2020-09-12T15:00:00Z,2020,15,0,256.625,256.625,53.421,-52.669,1012.3,5.75,-999.0,yes,yes,no,300234067877180,Gy,AOML,AMUNDSEN,North
2020-09-12T16:00:02Z,2020,16,0,256.6667,256.6667,53.417,-52.656,1012.4,5.76,-999.0,yes,yes,no,300234067877180,Gy,AOML,AMUNDSEN,North
2020-09-12T16:59:57Z,2020,17,0,256.7083,256.7083,53.413,-52.642,1012.5,5.84,-999.0,yes,yes,no,300234067877180,Gy,AOML,AMUNDSEN,North
2020-09-12T18:00:00Z,2020,18,0,256.75,256.75,53.408,-52.625,1012.8,5.66,-999.0,yes,yes,no,300234067877180,Gy,AOML,AMUNDSEN,North
2020-09-12T19:00:02Z,2020,19,0,256.7917,256.7917,53.402,-52.606,1013.2,5.67,-999.0,yes,yes,no,300234067877180,Gy,AOML,AMUNDSEN,North
2020-09-12T19:59:57Z,2020,20,0,256.8333,256.8333,53.394,-52.585,1013.7,5.67,-999.0,yes,yes,no,300234067877180,Gy,AOML,AMUNDSEN,North
2020-09-12T21:00:00Z,2020,21,0,256.875,256.875,53.386,-52.567,1014.4,5.71,-999.0,yes,yes,no,300234067877180,Gy,AOML,AMUNDSEN,North
2020-09-12T22:00:02Z,2020,22,0,256.9167,256.9167,53.377,-52.549,1015.0,5.69,-999.0,yes,yes,no,300234067877180,Gy,AOML,AMUNDSEN,North
2020-09-12T22:59:57Z,2020,23,0,256.9583,256.9583,53.369,-52.534,1015.9,5.75,-999.0,yes,yes,no,300234067877180,Gy,AOML,AMUNDSEN,North
2020-09-13T00:00:00Z,2020,0,0,257.0,257.0,53.361,-52.522,1016.3,5.7,-999.0,yes,yes,no,300234067877180,Gy,AOML,AMUNDSEN,North
2020-09-13T01:00:02Z,2020,1,0,257.0417,257.0417,53.356,-52.512,1016.6,5.67,-999.0,yes,yes,no,300234067877180,Gy,AOML,AMUNDSEN,North
2020-09-13T01:59:57Z,2020,2,0,257.0833,257.0833,53.352,-52.502,1016.6,5.64,-999.0,yes,yes,no,300234067877180,Gy,AOML,AMUNDSEN,North
2020-09-13T03:00:00Z,2020,3,0,257.125,257.125,53.348,-52.49,1016.6,5.6,-999.0,yes,yes,no,300234067877180,Gy,AOML,AMUNDSEN,North
2020-09-13T04:00:02Z,2020,4,0,257.1667,257.1667,53.345,-52.48,1016.9,5.57,-999.0,yes,yes,no,300234067877180,Gy,AOML,AMUNDSEN,North
2020-09-13T04:59:57Z,2020,5,0,257.2083,257.2083,53.343,-52.47,1016.7,5.56,-999.0,yes,yes,no,300234067877180,Gy,AOML,AMUNDSEN,North
2020-09-13T06:00:00Z,2020,6,0,257.25,257.25,53.341,-52.454,1017.2,5.55,-999.0,yes,yes,no,300234067877180,Gy,AOML,AMUNDSEN,North
2020-09-13T07:00:02Z,2020,7,0,257.2917,257.2917,53.339,-52.439,1017.4,5.55,-999.0,yes,yes,no,300234067877180,Gy,AOML,AMUNDSEN,North